STARLINK-32168, 60335

Orbit data source: Space-Track

STARLINK-32168, 60335 is a payload satellite owned by SpaceX/Seattle (US) in LEO that was launched on Fri, 02 Aug 2024 UTC via an FALCON 9 launch vehicle from the Air Force Eastern Test Range (AFETR). Payload-class satellites include a variety of spacecraft equipped with specific instruments for various scientific and technological missions. These include communications satellites like Starlink; space stations such as the ISS; scientific satellites like the Hubble; Earth observation satellites from companies like Planet Labs, Umbra, and HawkEye 360; GPS; miniature CubeSats for education and research; and military/defense satellites.

Loading next visibility...
Identifier
60335, 2024-136G
Orbit
LEO
Last TLE update
14 hours ago
Origin
Manufacturer
SpaceX/Seattle
Mission
Operational Commercial Communications
Bus & Motor
STARLINK V2M, Unknown motor
Mass
730 kg wet, ~700 kg dry
Launch date (UTC)
2024-08-02 (1 year ago)
Launch vehicle
FALCON 9
Launch site
Air Force Eastern Test Range (AFETR)
Object type
Payload
Rocket body
Debris
Shape & HBR
Box + 2 Pan, 14.5 m
Radar Cross Section
33.884 m², Large (>1 m²)

Expand to show TLE details & history

TLE from 14 hours ago
0 STARLINK-32168
1 60335U 24136G   25199.41191079  .00000045  00000-0  13640-4 0  9998
2 60335  53.1602  84.0015 0001353  88.4468 271.6687 15.30190464 53798
Epoch: 2025-07-18T09:53Z
TLE epoch observation values (Epoch: 2025-07-18T09:53:09.092Z)
Latitude
-0.00007°
Longitude
-0.75018°
Altitude
476.116 km
Speed
7.629 km/s
True Right ascension
05h 36m 00s
True Declination
0° 00' 00"
Sunlit
Object was in daylight at epoch
Visualization orbit readout
Latitude
-44.82572°
Longitude
-51.20583°
Altitude
491.215 km
Speed
7.619 km/s
Apparent Right ascension
01h 22m 36s
Apparent Declination
-43° 00' 16"
Sunlit
Object is in daylight
Visualization observer readout
Local Sidereal Time
12:31:13
Azimuth
248.02° W
Elevation
-79.903°
Doppler factor
1
Orbital elements
Apogee altitude
476.427 km
Perigee altitude
474.573 km
Semi-major axis
6,853.637 km
Eccentricity
0.00014
Inclination
53.1602°
RAAN
84.0015°
Arg. of periapsis
88.4468°
True anomaly
271.6532°
Mean anomaly
271.6687°
Eccentric anomaly
271.66095°
Mean motion
3.82527 °/min
Orbital period
94.11 mins
BSTAR
0.00001364
Loading maneuver chart data...
Loading SW <> Apogee altitude chart data...
Loading historical data...
Loading historical data...
Loading historical data...
Loading historical data...
Loading historical data...
Loading historical data...
Loading historical data...
|